Voltar ao catálogo

STARLINK-35123

AtivoComunicaçõesVLEO
NORAD 65634·PAYLOAD·🇺🇸 United States

Lançado Sep 18, 2025 de Cape Canaveral Space Force Station

Loading…

Próximas Passagens (próximas 24 horas)

TLE

AtualizadoSource: CelesTrak SupGP

Época: Sep 15, 2026, 02:27 UTC

1 65634C 25210N   26258.10256944  .00022827  00000+0  73410-3 0  2584
2 65634  53.1576 146.3303 0001274  79.6914 306.1903 15.31688100    19

Acompanhe STARLINK-35123 em tempo real com AllMySat

Download on the App Store